,,PA_Meas_PMT16A,,PR_Meas_QMR101_102,,RH_Meas_QMH101,,SR_Meas_QMS101,,TA_Meas_QMH101,,GenWind,,GenWind,
time,status,PA,status,PR,status,RH,status,SR,status,TA,status,DirAvg,status,SpdAvg,
2015-11-22, 07:32:04,VALID,917.115,VALID,0,VALID,101.445,VALID,78.9692,VALID,19.7433,VALID,100,VALID,0,
2015-11-22, 07:33:04,VALID,917.13,VALID,0,VALID,101.468,VALID,80.366,VALID,19.7433,VALID,100,VALID,0,
2015-11-22, 07:34:04,VALID,917.162,VALID,0,VALID,101.468,VALID,82.1925,VALID,19.7028,VALID,100,VALID,0,
2015-11-22, 07:35:04,VALID,917.189,VALID,0,VALID,101.483,VALID,83.052,VALID,19.6833,VALID,100,VALID,0,
2015-11-22, 07:36:04,VALID,917.213,VALID,0,VALID,101.506,VALID,87.1348,VALID,19.6068,VALID,111,VALID,0,
2015-11-22, 07:37:04,VALID,917.263,VALID,0,VALID,101.536,VALID,86.8125,VALID,19.5873,VALID,181,VALID,0,
2015-11-22, 07:38:04,VALID,917.265,VALID,0,VALID,101.521,VALID,88.3166,VALID,19.5873,VALID,181,VALID,0,
2015-11-22, 07:39:04,VALID,917.33,VALID,0,VALID,101.506,VALID,93.4738,VALID,19.6458,VALID,181,VALID,0,
2015-11-22, 07:40:04,VALID,917.358,VALID,0,VALID,101.483,VALID,95.6226,VALID,19.6653,VALID,181,VALID,0,
2015-11-22, 07:41:04,VALID,917.358,VALID,0,VALID,101.491,VALID,99.7054,VALID,19.6653,VALID,181,VALID,0,
2015-11-22, 07:42:04,VALID,917.389,VALID,0,VALID,101.483,VALID,103.036,VALID,19.6653,VALID,181,VALID,0,
2015-11-22, 07:43:04,VALID,917.432,VALID,0,VALID,101.483,VALID,107.011,VALID,19.7238,VALID,181,VALID,0,
2015-11-22, 07:44:04,VALID,917.464,VALID,0,VALID,101.483,VALID,112.706,VALID,19.7028,VALID,181,VALID,0,
2015-11-22, 07:45:04,VALID,917.483,VALID,0,VALID,101.491,VALID,117.648,VALID,19.6638,VALID,181,VALID,0,
2015-11-22, 07:46:04,VALID,917.493,VALID,0,VALID,101.506,VALID,120.227,VALID,19.6848,VALID,181,VALID,0,
2015-11-22, 07:47:04,VALID,917.517,VALID,0,VALID,101.498,VALID,121.301,VALID,19.7028,VALID,181,VALID,0,
2015-11-22, 07:48:04,VALID,917.55,VALID,0,VALID,101.491,VALID,126.458,VALID,19.7223,VALID,181,VALID,0,
2015-11-22, 07:49:04,VALID,917.57,VALID,0,VALID,101.452,VALID,132.905,VALID,19.8408,VALID,181,VALID,0,
2015-11-22, 07:50:04,VALID,917.595,VALID,0,VALID,101.43,VALID,139.244,VALID,19.8783,VALID,181,VALID,0,
2015-11-22, 07:51:04,VALID,917.604,VALID,0,VALID,101.414,VALID,145.26,VALID,19.8573,VALID,181,VALID,0,
2015-11-22, 07:52:04,VALID,917.594,VALID,0,VALID,101.445,VALID,150.203,VALID,19.9383,VALID,181,VALID,0,
2015-11-22, 07:53:04,VALID,917.635,VALID,0,VALID,101.384,VALID,154.608,VALID,19.9758,VALID,181,VALID,0,
2015-11-22, 07:54:04,VALID,917.669,VALID,0,VALID,101.376,VALID,157.831,VALID,19.9758,VALID,181,VALID,0,
2015-11-22, 07:55:04,VALID,917.688,VALID,0,VALID,101.399,VALID,161.699,VALID,20.0553,VALID,181,VALID,0,
2015-11-22, 07:56:04,VALID,917.72,VALID,0,VALID,101.384,VALID,165.889,VALID,20.0944,VALID,182,VALID,0,
2015-11-22, 07:57:04,VALID,917.749,VALID,0,VALID,101.422,VALID,169.864,VALID,20.0163,VALID,182,VALID,0,
2015-11-22, 07:58:04,VALID,917.76,VALID,0,VALID,101.437,VALID,172.443,VALID,19.9758,VALID,182,VALID,0,
2015-11-22, 07:59:04,VALID,917.8,VALID,0,VALID,101.46,VALID,174.484,VALID,19.9368,VALID,182,VALID,0,
2015-11-22, 08:00:04,VALID,917.832,VALID,0,VALID,101.498,VALID,175.344,VALID,19.8588,VALID,182,VALID,0,
2015-11-22, 08:01:04,VALID,917.859,VALID,0,VALID,101.445,VALID,178.137,VALID,19.9563,VALID,182,VALID,0,
2015-11-22, 08:02:04,VALID,917.872,VALID,0.2,VALID,101.43,VALID,180.394,VALID,20.0148,VALID,182,VALID,0,
2015-11-22, 08:03:04,VALID,917.894,VALID,0,VALID,101.437,VALID,181.361,VALID,20.0133,VALID,182,VALID,0,
2015-11-22, 08:04:04,VALID,917.919,VALID,0,VALID,101.43,VALID,182.757,VALID,19.9743,VALID,182,VALID,0,
2015-11-22, 08:05:04,VALID,917.925,VALID,0,VALID,101.43,VALID,186.518,VALID,20.0343,VALID,237,VALID,0,
2015-11-22, 08:06:04,VALID,917.927,VALID,0,VALID,101.452,VALID,190.171,VALID,20.0538,VALID,247,VALID,0,
2015-11-22, 08:07:04,VALID,917.925,VALID,0,VALID,101.445,VALID,194.039,VALID,20.0148,VALID,275,VALID,0,
2015-11-22, 08:08:04,VALID,917.947,VALID,0,VALID,101.445,VALID,198.551,VALID,19.9938,VALID,275,VALID,0,
2015-11-22, 08:09:04,VALID,917.94,VALID,0,VALID,101.414,VALID,204.031,VALID,20.1513,VALID,275,VALID,0,
2015-11-22, 08:10:04,VALID,917.929,VALID,0,VALID,101.399,VALID,209.295,VALID,20.2489,VALID,275,VALID,0,
2015-11-22, 08:11:04,VALID,917.966,VALID,0,VALID,101.33,VALID,216.386,VALID,20.3464,VALID,275,VALID,0,
2015-11-22, 08:12:04,VALID,917.95,VALID,0,VALID,101.323,VALID,217.783,VALID,20.4244,VALID,275,VALID,0,
2015-11-22, 08:13:04,VALID,917.933,VALID,0,VALID,101.361,VALID,219.825,VALID,20.3464,VALID,275,VALID,0,
2015-11-22, 08:14:04,VALID,917.954,VALID,0,VALID,101.369,VALID,225.197,VALID,20.3074,VALID,276,VALID,0,
2015-11-22, 08:15:04,VALID,917.947,VALID,0,VALID,101.407,VALID,228.098,VALID,20.3074,VALID,275,VALID,0,
2015-11-22, 08:16:04,VALID,917.948,VALID,0,VALID,101.422,VALID,232.825,VALID,20.2473,VALID,275,VALID,0,
2015-11-22, 08:17:04,VALID,917.951,VALID,0,VALID,101.491,VALID,236.908,VALID,20.1529,VALID,275,VALID,0,
2015-11-22, 08:18:04,VALID,917.968,VALID,0,VALID,101.513,VALID,241.957,VALID,20.1334,VALID,275,VALID,0,
2015-11-22, 08:19:04,VALID,917.981,VALID,0,VALID,101.506,VALID,253.776,VALID,20.1513,VALID,275,VALID,0,
2015-11-22, 08:20:04,VALID,917.995,VALID,0,VALID,101.529,VALID,266.347,VALID,20.1318,VALID,275,VALID,0,
2015-11-22, 08:21:04,VALID,917.994,VALID,0,VALID,101.468,VALID,276.554,VALID,20.2489,VALID,275,VALID,0,
2015-11-22, 08:22:04,VALID,917.977,VALID,0,VALID,101.399,VALID,299.438,VALID,20.4244,VALID,275,VALID,0,
2015-11-22, 08:23:04,VALID,918.015,VALID,0,VALID,101.422,VALID,307.282,VALID,20.3269,VALID,275,VALID,0,
2015-11-22, 08:24:04,VALID,918.062,VALID,0,VALID,101.399,VALID,308.464,VALID,20.4634,VALID,275,VALID,0,
2015-11-22, 08:25:04,VALID,918.029,VALID,0,VALID,101.391,VALID,318.993,VALID,20.5414,VALID,275,VALID,0,
2015-11-22, 08:26:04,VALID,918.04,VALID,0,VALID,101.338,VALID,337.15,VALID,20.678,VALID,275,VALID,0,
2015-11-22, 08:27:04,VALID,918.061,VALID,0,VALID,101.292,VALID,349.936,VALID,20.8925,VALID,275,VALID,0,
2015-11-22, 08:28:04,VALID,918.094,VALID,0,VALID,101.308,VALID,369.06,VALID,20.873,VALID,275,VALID,0,
2015-11-22, 08:29:04,VALID,918.075,VALID,0,VALID,101.277,VALID,379.482,VALID,20.9316,VALID,275,VALID,0,
2015-11-22, 08:30:04,VALID,918.061,VALID,0,VALID,101.285,VALID,374.755,VALID,20.9901,VALID,275,VALID,0,
2015-11-22, 08:31:04,VALID,918.079,VALID,0,VALID,101.292,VALID,377.656,VALID,21.0291,VALID,268,VALID,0,
2015-11-22, 08:32:04,VALID,918.059,VALID,0,VALID,101.277,VALID,399.466,VALID,21.1055,VALID,268,VALID,0,
2015-11-22, 08:33:04,VALID,918.045,VALID,0,VALID,101.254,VALID,428.368,VALID,21.1836,VALID,268,VALID,0,
2015-11-22, 08:34:04,VALID,918.03,VALID,0,VALID,101.254,VALID,443.839,VALID,21.2226,VALID,269,VALID,0,
2015-11-22, 08:35:04,VALID,918.043,VALID,0,VALID,101.285,VALID,469.948,VALID,21.2616,VALID,269,VALID,0,
2015-11-22, 08:36:04,VALID,918.009,VALID,0,VALID,101.247,VALID,478.65,VALID,21.4177,VALID,270,VALID,0,
2015-11-22, 08:37:04,VALID,918.009,VALID,0,VALID,101.391,VALID,482.518,VALID,21.1836,VALID,281,VALID,0,
2015-11-22, 08:38:04,VALID,918.015,VALID,0,VALID,101.559,VALID,483.593,VALID,21.008,VALID,287,VALID,0,
2015-11-22, 08:39:04,VALID,918.021,VALID,0,VALID,101.696,VALID,505.618,VALID,20.8129,VALID,285,VALID,0,
2015-11-22, 08:40:04,VALID,918.034,VALID,0,VALID,101.681,VALID,515.18,VALID,20.8129,VALID,282,VALID,0,
2015-11-22, 08:41:04,VALID,918.034,VALID,0,VALID,101.635,VALID,515.825,VALID,20.8714,VALID,286,VALID,0,
2015-11-22, 08:42:04,VALID,918.035,VALID,0,VALID,101.628,VALID,510.131,VALID,20.8699,VALID,275,VALID,0,
2015-11-22, 08:43:04,VALID,918.038,VALID,0,VALID,101.574,VALID,499.494,VALID,21.0665,VALID,271,VALID,0,
2015-11-22, 08:44:04,VALID,918.083,VALID,0,VALID,101.635,VALID,500.676,VALID,21.0665,VALID,312,VALID,0,
2015-11-22, 08:45:04,VALID,918.07,VALID,0,VALID,101.651,VALID,485.527,VALID,21.164,VALID,337,VALID,0,
2015-11-22, 08:46:04,VALID,918.047,VALID,0,VALID,101.658,VALID,396.35,VALID,21.2405,VALID,278,VALID,0,
2015-11-22, 08:47:04,VALID,918.064,VALID,0,VALID,101.704,VALID,255.71,VALID,21.2389,VALID,284,VALID,0,
2015-11-22, 08:48:04,VALID,918.073,VALID,0,VALID,101.818,VALID,197.584,VALID,21.2795,VALID,11,VALID,0,
2015-11-22, 08:49:04,VALID,918.07,VALID,0,VALID,101.826,VALID,215.312,VALID,21.3185,VALID,337,VALID,0,
2015-11-22, 08:50:04,VALID,918.099,VALID,0,VALID,101.826,VALID,497.023,VALID,21.3575,VALID,12,VALID,0,
2015-11-22, 08:51:04,VALID,918.103,VALID,0,VALID,101.727,VALID,496.056,VALID,21.5526,VALID,13,VALID,0,
2015-11-22, 08:52:04,VALID,918.11,VALID,0,VALID,101.925,VALID,340.911,VALID,21.4534,VALID,276,VALID,0,
2015-11-22, 08:53:04,VALID,918.117,VALID,0,VALID,102.154,VALID,534.09,VALID,21.3185,VALID,291,VALID,0,
2015-11-22, 08:54:04,VALID,918.123,VALID,0,VALID,102.276,VALID,466.939,VALID,21.2421,VALID,299,VALID,0,
2015-11-22, 08:55:04,VALID,918.125,VALID,0,VALID,102.283,VALID,224.874,VALID,21.2616,VALID,258,VALID,0,
2015-11-22, 08:56:04,VALID,918.153,VALID,0,VALID,102.314,VALID,196.94,VALID,21.26,VALID,270,VALID,0,
2015-11-22, 08:57:04,VALID,918.184,VALID,0,VALID,102.39,VALID,182.435,VALID,21.26,VALID,356,VALID,0,
2015-11-22, 08:58:04,VALID,918.233,VALID,0,VALID,102.413,VALID,194.791,VALID,21.3006,VALID,338,VALID,0,
2015-11-22, 08:59:04,VALID,918.251,VALID,0,VALID,102.459,VALID,215.957,VALID,21.2795,VALID,4,VALID,0,
2015-11-22, 09:00:04,VALID,918.285,VALID,0,VALID,102.398,VALID,395.491,VALID,21.3965,VALID,4,VALID,0,
2015-11-22, 09:01:04,VALID,918.276,VALID,0,VALID,102.436,VALID,405.053,VALID,21.4372,VALID,344,VALID,0,
2015-11-22, 09:02:04,VALID,918.28,VALID,0,VALID,102.611,VALID,288.587,VALID,21.4177,VALID,281,VALID,0,
2015-11-22, 09:03:04,VALID,918.31,VALID,0,VALID,102.626,VALID,303.736,VALID,21.416,VALID,245,VALID,0,
2015-11-22, 09:04:04,VALID,918.315,VALID,0,VALID,102.84,VALID,217.891,VALID,21.377,VALID,291,VALID,0,
2015-11-22, 09:05:04,VALID,918.295,VALID,0,VALID,102.878,VALID,240.883,VALID,21.377,VALID,298,VALID,0,
2015-11-22, 09:06:04,VALID,918.291,VALID,0,VALID,102.985,VALID,546.661,VALID,21.3185,VALID,292,VALID,0,
2015-11-22, 09:07:04,VALID,918.315,VALID,0,VALID,102.954,VALID,229.817,VALID,21.3965,VALID,306,VALID,0,
2015-11-22, 09:08:04,VALID,918.321,VALID,0,VALID,103.053,VALID,248.297,VALID,21.3575,VALID,307,VALID,0.0628906,
2015-11-22, 09:09:04,VALID,918.309,VALID,0,VALID,103.03,VALID,299.438,VALID,21.299,VALID,282,VALID,0,
2015-11-22, 09:10:04,VALID,918.308,VALID,0,VALID,102.969,VALID,231.321,VALID,21.416,VALID,338,VALID,0,
2015-11-22, 09:11:04,VALID,918.304,VALID,0,VALID,102.985,VALID,220.039,VALID,21.455,VALID,339,VALID,0,
2015-11-22, 09:12:04,VALID,918.267,VALID,0,VALID,102.931,VALID,254.421,VALID,21.4729,VALID,350,VALID,0,
2015-11-22, 09:13:04,VALID,918.299,VALID,0,VALID,102.794,VALID,584.587,VALID,21.4746,VALID,325,VALID,0,
2015-11-22, 09:14:04,VALID,918.286,VALID,0,VALID,102.703,VALID,726.302,VALID,21.6111,VALID,348,VALID,0,
2015-11-22, 09:15:04,VALID,918.278,VALID,0,VALID,102.367,VALID,779.486,VALID,21.7282,VALID,6,VALID,0.191016,
2015-11-22, 09:16:04,VALID,918.256,VALID,0,VALID,102.085,VALID,648.837,VALID,21.8826,VALID,14,VALID,0.259766,
2015-11-22, 09:17:04,VALID,918.248,VALID,0,VALID,101.818,VALID,431.699,VALID,22.0972,VALID,342,VALID,0,
2015-11-22, 09:18:04,VALID,918.259,VALID,0,VALID,101.468,VALID,320.927,VALID,22.2338,VALID,22,VALID,1.05469,
2015-11-22, 09:19:04,VALID,918.267,VALID,0,VALID,99.8363,VALID,318.885,VALID,22.2159,VALID,11,VALID,0.819922,
2015-11-22, 09:20:04,VALID,918.257,VALID,0,VALID,99.9887,VALID,570.62,VALID,22.2745,VALID,350,VALID,0,
2015-11-22, 09:21:04,VALID,918.257,VALID,0,VALID,99.4246,VALID,498.849,VALID,22.2923,VALID,343,VALID,0,
2015-11-22, 09:22:04,VALID,918.209,VALID,0,VALID,97.877,VALID,326.299,VALID,22.2745,VALID,28,VALID,0,
2015-11-22, 09:23:04,VALID,918.198,VALID,0,VALID,98.2125,VALID,372.713,VALID,22.2142,VALID,36,VALID,0,
2015-11-22, 09:24:04,VALID,918.222,VALID,0,VALID,98.4412,VALID,276.983,VALID,22.2338,VALID,311,VALID,0,
2015-11-22, 09:25:04,VALID,918.227,VALID,0,VALID,97.5416,VALID,245.396,VALID,22.1167,VALID,308,VALID,0,
2015-11-22, 09:26:04,VALID,918.215,VALID,0,VALID,97.6865,VALID,235.189,VALID,21.9606,VALID,250,VALID,0,
2015-11-22, 09:27:04,VALID,918.181,VALID,0,VALID,98.5708,VALID,230.461,VALID,21.9216,VALID,251,VALID,0,
2015-11-22, 09:28:04,VALID,918.18,VALID,0,VALID,99.6457,VALID,216.279,VALID,21.9606,VALID,257,VALID,0,
2015-11-22, 09:29:04,VALID,918.185,VALID,0,VALID,100.865,VALID,203.171,VALID,22.1362,VALID,12,VALID,0,
2015-11-22, 09:30:04,VALID,918.178,VALID,0,VALID,99.0968,VALID,200.378,VALID,22.0972,INVALID,360,VALID,0,
2015-11-22, 09:31:04,VALID,918.159,VALID,0,VALID,98.243,VALID,412.574,VALID,22.076,VALID,19,VALID,0,
2015-11-22, 09:32:04,VALID,918.167,VALID,0,VALID,98.1972,VALID,344.994,VALID,22.1752,VALID,23,VALID,0,
2015-11-22, 09:33:04,VALID,918.155,VALID,0,VALID,98.4869,VALID,269.57,VALID,22.2923,VALID,22,VALID,0,
2015-11-22, 09:34:04,VALID,918.162,VALID,0,VALID,98.6622,VALID,252.809,VALID,22.4679,VALID,328,VALID,0,
2015-11-22, 09:35:04,VALID,918.152,VALID,0,VALID,97.8923,VALID,236.478,VALID,22.5069,VALID,275,VALID,0,
2015-11-22, 09:36:04,VALID,918.106,VALID,0,VALID,98.7995,VALID,206.072,VALID,22.7411,VALID,280,VALID,0,
2015-11-22, 09:37:04,VALID,918.124,VALID,0,VALID,94.8124,VALID,184.369,VALID,22.8387,VALID,294,VALID,0,
2015-11-22, 09:38:04,VALID,918.121,VALID,0,VALID,95.9483,VALID,191.997,VALID,22.8972,VALID,316,VALID,0,
2015-11-22, 09:39:04,VALID,918.063,VALID,0,VALID,96.1236,VALID,216.924,VALID,23.0338,VALID,1,VALID,0,
2015-11-22, 09:40:04,VALID,918.109,VALID,0,VALID,94.5532,VALID,252.809,VALID,23.1491,VALID,318,VALID,0,
2015-11-22, 09:41:04,VALID,918.096,VALID,0,VALID,86.8383,VALID,289.769,VALID,23.229,VALID,307,VALID,0,
2015-11-22, 09:42:04,VALID,918.102,VALID,0,VALID,88.6756,VALID,272.363,VALID,23.2467,VALID,299,VALID,0,
2015-11-22, 09:43:04,VALID,918.133,VALID,0,VALID,94.9496,VALID,323.505,VALID,23.4419,VALID,326,VALID,0,
2015-11-22, 09:44:04,VALID,918.139,VALID,0,VALID,84.3912,VALID,322.753,VALID,23.5004,VALID,285,VALID,0,
2015-11-22, 09:45:04,VALID,918.134,VALID,0,VALID,87.1814,VALID,347.25,VALID,23.598,VALID,76,VALID,0,
2015-11-22, 09:46:04,VALID,918.145,VALID,0,VALID,91.9231,VALID,365.407,VALID,23.7151,VALID,70,VALID,0,
2015-11-22, 09:47:04,VALID,918.118,VALID,0,VALID,89.3007,VALID,405.161,VALID,23.9902,VALID,27,VALID,0,
2015-11-22, 09:48:04,VALID,918.128,VALID,0,VALID,81.5248,VALID,368.308,VALID,24.0878,VALID,247,VALID,0.161719,
2015-11-22, 09:49:04,VALID,918.125,VALID,0,VALID,82.3253,VALID,328.877,VALID,23.9316,VALID,289,VALID,0,
2015-11-22, 09:50:04,VALID,918.118,VALID,0,VALID,84.902,VALID,319.315,VALID,23.9902,VALID,34,VALID,0,
2015-11-22, 09:51:04,VALID,918.11,VALID,0,VALID,83.7661,VALID,326.514,VALID,23.9902,VALID,18,VALID,0,
2015-11-22, 09:52:04,VALID,918.064,VALID,0,VALID,82.7598,VALID,351.977,VALID,23.9689,VALID,1,VALID,0,
2015-11-22, 09:53:04,VALID,918.059,VALID,0,VALID,82.3481,VALID,432.773,VALID,23.8731,VALID,275,VALID,0,
2015-11-22, 09:54:04,VALID,918.046,VALID,0,VALID,83.2934,VALID,485.849,VALID,23.7151,VALID,239,VALID,0,
2015-11-22, 09:55:04,VALID,918.031,VALID,0,VALID,84.4598,VALID,399.681,VALID,23.7737,VALID,246,VALID,0,
2015-11-22, 09:56:04,VALID,918.053,VALID,0,VALID,84.2083,VALID,922.382,VALID,23.8145,VALID,268,VALID,0,
2015-11-22, 09:57:04,VALID,918.063,VALID,0,VALID,91.42,VALID,557.297,VALID,24.0292,VALID,269,VALID,0,
2015-11-22, 09:58:04,VALID,918.034,VALID,0,VALID,81.258,VALID,484.13,VALID,24.0683,VALID,253,VALID,0,
2015-11-22, 09:59:04,VALID,918.024,VALID,0,VALID,80.3508,VALID,629.713,VALID,23.9689,VALID,240,VALID,0,
2015-11-22, 10:00:04,VALID,917.984,VALID,0,VALID,82.31,VALID,502.825,VALID,23.9902,VALID,274,VALID,0,
2015-11-22, 10:01:04,VALID,917.991,VALID,0,VALID,81.9517,VALID,436.641,VALID,24.0842,VALID,7,VALID,0.0726563,
2015-11-22, 10:02:04,VALID,918.007,VALID,0,VALID,82.4167,VALID,398.177,VALID,24.125,VALID,6,VALID,0,
2015-11-22, 10:03:04,VALID,918.018,VALID,0,VALID,82.6836,VALID,493.262,VALID,24.0469,VALID,22,VALID,1.4168,
2015-11-22, 10:04:04,VALID,918.005,VALID,0,VALID,83.1029,VALID,437.5,VALID,23.9493,VALID,5,VALID,0.476172,
2015-11-22, 10:05:04,VALID,918.014,VALID,0,VALID,88.5079,VALID,496.7,VALID,24.0274,VALID,52,VALID,0.110156,
2015-11-22, 10:06:04,VALID,918.015,VALID,0,VALID,86.5944,VALID,515.932,VALID,24.1641,VALID,48,VALID,0.751562,
2015-11-22, 10:07:04,VALID,918.033,VALID,0,VALID,83.0114,VALID,909.06,VALID,24.3983,VALID,295,VALID,0,
2015-11-22, 10:08:04,VALID,917.979,VALID,0,VALID,83.019,VALID,930.226,VALID,24.455,VALID,257,VALID,0,
2015-11-22, 10:09:04,VALID,917.997,VALID,0,VALID,83.8118,VALID,949.135,VALID,24.7302,VALID,256,VALID,0,
2015-11-22, 10:10:04,VALID,917.994,VALID,0,VALID,80.8692,VALID,931.837,VALID,24.9859,VALID,291,VALID,0.00585938,
2015-11-22, 10:11:04,VALID,917.947,VALID,0,VALID,80.6329,VALID,927.969,VALID,25.0621,VALID,310,VALID,0,
2015-11-22, 10:12:04,VALID,917.957,VALID,0,VALID,81.9441,VALID,259.47,VALID,25.2203,VALID,304,VALID,0,
2015-11-22, 10:13:04,VALID,917.948,VALID,0,VALID,80.5795,VALID,226.486,VALID,25.2183,VALID,241,VALID,0,
2015-11-22, 10:14:04,VALID,917.922,VALID,0,VALID,78.0714,VALID,207.684,VALID,25.1207,VALID,228,VALID,0,
2015-11-22, 10:15:04,VALID,917.911,VALID,0,VALID,80.1983,VALID,211.981,VALID,24.9255,VALID,236,VALID,0,
2015-11-22, 10:16:04,VALID,917.881,VALID,0,VALID,80.6481,VALID,264.305,VALID,24.6893,VALID,232,VALID,0,
2015-11-22, 10:17:04,VALID,917.901,VALID,0,VALID,83.1715,VALID,674.838,VALID,24.7497,VALID,235,VALID,0,
2015-11-22, 10:18:04,VALID,917.849,VALID,0,VALID,80.7853,VALID,315.877,VALID,24.8474,VALID,235,VALID,0,
2015-11-22, 10:19:04,VALID,917.875,VALID,0,VALID,82.0966,VALID,250.123,VALID,24.8864,VALID,235,VALID,0,
2015-11-22, 10:20:04,VALID,917.865,VALID,0,VALID,80.3051,VALID,212.948,VALID,24.8864,VALID,183,VALID,0,
2015-11-22, 10:21:04,VALID,917.868,VALID,0,VALID,79.6495,VALID,170.187,VALID,24.904,VALID,183,VALID,0,
2015-11-22, 10:22:04,VALID,917.837,VALID,0,VALID,78.9938,VALID,144.186,VALID,24.6131,VALID,238,VALID,0,
2015-11-22, 10:23:04,VALID,917.834,VALID,0,VALID,79.4741,VALID,133.764,VALID,24.2208,VALID,238,VALID,0,
2015-11-22, 10:24:04,VALID,917.843,VALID,0,VALID,80.9912,VALID,143.649,VALID,23.967,VALID,238,VALID,0,
2015-11-22, 10:25:04,VALID,917.833,VALID,0,VALID,81.9365,VALID,164.278,VALID,23.8322,VALID,234,VALID,0,
2015-11-22, 10:26:04,VALID,917.798,VALID,0,VALID,81.662,VALID,195.973,VALID,23.6956,VALID,226,VALID,0,
2015-11-22, 10:27:04,VALID,917.828,VALID,0,VALID,82.3253,VALID,247.759,VALID,23.6548,VALID,223,VALID,0,
2015-11-22, 10:28:04,VALID,917.807,VALID,0,VALID,81.5782,VALID,498.097,VALID,23.6352,VALID,239,VALID,0,
2015-11-22, 10:29:04,VALID,917.816,VALID,0,VALID,81.5324,VALID,308.464,VALID,23.6938,VALID,231,VALID,0,
2015-11-22, 10:30:04,VALID,917.767,VALID,0,VALID,81.4105,VALID,252.379,VALID,23.7542,VALID,232,VALID,0,
2015-11-22, 10:31:04,VALID,917.789,VALID,0,VALID,82.5006,VALID,445.236,VALID,23.8713,VALID,233,VALID,0,
2015-11-22, 10:32:04,VALID,917.754,VALID,0,VALID,83.6136,VALID,458.989,VALID,24.0469,VALID,235,VALID,0,
2015-11-22, 10:33:04,VALID,917.768,VALID,0,VALID,80.3127,VALID,828.801,VALID,24.2031,VALID,238,VALID,0,
2015-11-22, 10:34:04,VALID,917.707,VALID,0,VALID,79.7714,VALID,847.173,VALID,24.2208,VALID,258,VALID,0,
2015-11-22, 10:35:04,VALID,917.71,VALID,0,VALID,79.7257,VALID,807.743,VALID,24.2403,VALID,255,VALID,0,
2015-11-22, 10:36:04,VALID,917.714,VALID,0,VALID,77.9571,VALID,829.875,VALID,24.2989,VALID,262,VALID,0,
2015-11-22, 10:37:04,VALID,917.696,VALID,0,VALID,79.7867,VALID,799.792,VALID,24.416,VALID,271,VALID,0,
2015-11-22, 10:38:04,VALID,917.678,VALID,0,VALID,79.7943,VALID,805.701,VALID,24.6912,VALID,277,VALID,0.0167969,
2015-11-22, 10:39:04,VALID,917.647,VALID,0,VALID,75.3498,VALID,826.545,VALID,24.7107,VALID,296,VALID,0,
2015-11-22, 10:40:04,VALID,917.627,VALID,0,VALID,76.7678,VALID,814.297,VALID,24.8259,VALID,274,VALID,0,
2015-11-22, 10:41:04,VALID,917.577,VALID,0,VALID,75.9902,VALID,824.503,VALID,25.0212,VALID,271,VALID,0,
2015-11-22, 10:42:04,VALID,917.602,VALID,0,VALID,73.5355,VALID,842.876,VALID,25.3141,VALID,275,VALID,0,
2015-11-22, 10:43:04,VALID,917.555,VALID,0,VALID,73.261,VALID,855.984,VALID,25.5874,VALID,263,VALID,0,
2015-11-22, 10:44:04,VALID,917.559,VALID,0,VALID,73.8785,VALID,860.604,VALID,25.8804,VALID,329,VALID,0,
2015-11-22, 10:45:04,VALID,917.561,VALID,0,VALID,71.6449,VALID,870.596,VALID,26.0366,VALID,190,VALID,0,
2015-11-22, 10:46:04,VALID,917.541,VALID,0,VALID,71.2637,VALID,882.629,VALID,26.0366,VALID,180,VALID,0,
2015-11-22, 10:47:04,VALID,917.518,VALID,0,VALID,69.6552,VALID,893.588,VALID,26.1167,VALID,184,VALID,0,
2015-11-22, 10:48:04,VALID,917.528,VALID,0,VALID,69.4265,VALID,905.514,VALID,26.273,VALID,185,VALID,0,
2015-11-22, 10:49:04,VALID,917.519,VALID,0,VALID,70.9816,VALID,900.035,VALID,26.4097,VALID,227,VALID,0,
2015-11-22, 10:50:04,VALID,917.497,VALID,0,VALID,69.0529,VALID,885.1,VALID,26.312,VALID,267,VALID,0.332812,
2015-11-22, 10:51:04,VALID,917.484,VALID,0,VALID,68.9614,VALID,873.604,VALID,25.9995,VALID,251,VALID,0.547266,
2015-11-22, 10:52:04,VALID,917.474,VALID,0,VALID,70.8139,VALID,883.059,VALID,25.6851,VALID,266,VALID,0,
2015-11-22, 10:53:04,VALID,917.475,VALID,0,VALID,73.0399,VALID,910.027,VALID,25.5308,VALID,255,VALID,0,
2015-11-22, 10:54:04,VALID,917.469,VALID,0,VALID,74.9687,VALID,717.385,VALID,25.648,VALID,279,VALID,0,
2015-11-22, 10:55:04,VALID,917.443,VALID,0,VALID,72.5216,VALID,353.481,VALID,25.7847,VALID,236,VALID,0,
2015-11-22, 10:56:04,VALID,917.41,VALID,0,VALID,72.613,VALID,714.699,VALID,25.9995,VALID,237,VALID,0,
2015-11-22, 10:57:04,VALID,917.41,VALID,0,VALID,72.3081,VALID,910.994,VALID,26.2124,VALID,269,VALID,0,
2015-11-22, 10:58:04,VALID,917.386,VALID,0,VALID,69.3121,VALID,904.332,VALID,26.2534,VALID,263,VALID,0.0125,
2015-11-22, 10:59:04,VALID,917.384,VALID,0,VALID,69.5256,VALID,895.2,VALID,25.8804,VALID,259,VALID,0,
2015-11-22, 11:00:04,VALID,917.371,VALID,0,VALID,70.3413,VALID,890.365,VALID,25.8237,VALID,237,VALID,0,
2015-11-22, 11:01:04,VALID,917.316,VALID,0,VALID,70.3336,VALID,896.596,VALID,25.9409,VALID,199,VALID,0,
2015-11-22, 11:02:04,VALID,917.336,VALID,0,VALID,69.1977,VALID,906.911,VALID,25.9389,VALID,181,VALID,1.16289,
2015-11-22, 11:03:04,VALID,917.322,VALID,0,VALID,70.0744,VALID,907.663,VALID,26.0972,VALID,180,VALID,0,
2015-11-22, 11:04:04,VALID,917.336,VALID,0,VALID,69.274,VALID,908.63,VALID,26.3882,VALID,188,VALID,0,
2015-11-22, 11:05:04,VALID,917.29,VALID,0,VALID,68.9309,VALID,914.002,VALID,26.7027,VALID,329,VALID,0,
2015-11-22, 11:06:04,VALID,917.287,VALID,0,VALID,70.3946,VALID,913.035,VALID,27.0153,VALID,329,VALID,0,
2015-11-22, 11:07:04,VALID,917.276,VALID,0,VALID,68.4735,VALID,887.571,VALID,27.2672,VALID,255,VALID,0,
2015-11-22, 11:08:04,VALID,917.25,VALID,0,VALID,66.6363,VALID,871.24,VALID,27.4235,VALID,228,VALID,0.307031,
2015-11-22, 11:09:04,VALID,917.191,VALID,0,VALID,65.752,VALID,267.743,VALID,27.2281,VALID,220,VALID,0.0289063,
2015-11-22, 11:10:04,VALID,917.2,VALID,0,VALID,65.2336,VALID,192.642,VALID,27.0328,VALID,241,VALID,0.478125,
2015-11-22, 11:11:04,VALID,917.198,VALID,0,VALID,68.1762,VALID,180.179,VALID,26.603,VALID,253,VALID,0.00703125,
2015-11-22, 11:12:04,VALID,917.18,VALID,0,VALID,67.9704,VALID,183.509,VALID,26.2514,VALID,260,VALID,0,
2015-11-22, 11:13:04,VALID,917.137,VALID,0,VALID,69.5332,VALID,222.511,VALID,26.0757,VALID,260,VALID,0,
2015-11-22, 11:14:04,VALID,917.149,VALID,0,VALID,70.5014,VALID,606.398,VALID,26.1147,VALID,328,VALID,0,
2015-11-22, 11:15:04,VALID,917.139,VALID,0,VALID,72.4072,VALID,406.665,VALID,26.0952,VALID,328,VALID,0,
2015-11-22, 11:16:04,VALID,917.125,VALID,0,VALID,69.9677,VALID,1019.08,VALID,26.1362,VALID,283,VALID,0,
2015-11-22, 11:17:04,VALID,917.128,VALID,0,VALID,69.1673,VALID,921.953,VALID,25.9585,VALID,261,VALID,0,